Location: Moy Burn
(57.3833°N, 4.0667°W)
Time: 10:17:54
(UTC+00:00)

Cosmos 841 Rocket - Pass Details

Date: 08 August 2020
Orbit: 746 x 773 km, 74.0° (Epoch: 18 September)

Event Time Altitude Azimuth Distance (km) Brightness Sun altitude
Rises 21:29:45 0° 330° (NNW) 3,225 8.8 -8.6°
Reaches altitude 10° 21:32:12 10° 336° (NNW) 2,301 7.4 -8.8°
Maximum altitude 21:37:15 48° 51° (NE) 990 4.1 -9.3°
Enters shadow 21:42:04 11° 125° (SE) 2,208 5.3 -9.7°
